Starlink 31611

operational
NORAD ID: 59325 Int'l Des: 2024-057 Owner: SPXS Country: US Constellation: starlink
LEOCIRCULAR

Starlink 31611について

説明を読み込み中...

リアルタイム位置

3D地球を読み込み中...

次回通過

高度履歴

Altitude vs Time

uPlot chart will show altitude changes over time

軌道要素

1 59325U 24057F 25258.97250017 .00025173 00000-0 92482-3 0 9991
2 59325 43.0024 94.1884 0000152 42.0677 318.0186 15.27450028 83111
Epoch: Sep 15, 2025 • Age: 21 hours

現在のステータス

高度 482.4 km
速度 7.63 km/s
衛星直下点 10.07°N, 44.66°W
打ち上げ日 Mar 25, 2024
運用期間 1.4 years
タイプ internet

技術仕様

分類 Payload
質量 730.00 kg
乾燥質量 700.00 kg
総質量 730.00 kg
長さ 0.30 m
直径 4.10 m
スパン 29.00 m
形状 Box + pan
製造者 SPXS
バスタイプ Starlink V2M
フェーズステータス In Orbit
所有者/国 SPXS/US

大規模コンステレーション

Loading constellations...